• In Belarus
  • List of Countries
  • For 7 days
  • Water Temperature
  • Satellite Maps
  • Weather Map
  • Weather Widgets
  • user-avatar
    Login

    Hourly Weather Evora

    Today, 23 June, Saturday

    Time Temperature Precipitation Wind Pressure Humidity
    00:00 +22°C° 0.1 mm 1 mps 738 mmHg 67%
    01:00 +22°C° 0.1 mm 1 mps 738 mmHg 68%
    02:00 +20°C° 0.1 mm 0 mps 738 mmHg 69%
    03:00 +22°C° 0 mm 1 mps 738 mmHg 68%
    04:00 +22°C° 0 mm 1 mps 738 mmHg 67%
    05:00 +22°C° 0 mm 1 mps 738 mmHg 66%
    06:00 +24°C° 0 mm 2 mps 738 mmHg 58%
    07:00 +26°C° 0 mm 2 mps 738 mmHg 50%
    08:00 +28°C° 0 mm 3 mps 738 mmHg 43%
    09:00 +29°C° 0 mm 3 mps 738 mmHg 38%
    10:00 +31°C° 0 mm 3 mps 738 mmHg 34%
    11:00 +34°C° 0 mm 3 mps 738 mmHg 30%
    12:00 +34°C° 0 mm 4 mps 738 mmHg 29%
    13:00 +35°C° 0 mm 4 mps 738 mmHg 28%
    14:00 +35°C° 0 mm 4 mps 737 mmHg 27%
    15:00 +34°C° 0 mm 4 mps 737 mmHg 30%
    16:00 +33°C° 0 mm 4 mps 737 mmHg 34%
    17:00 +32°C° 0 mm 4 mps 737 mmHg 37%
    18:00 +29°C° 0 mm 4 mps 737 mmHg 45%
    19:00 +26°C° 0 mm 4 mps 737 mmHg 53%
    20:00 +24°C° 0 mm 3 mps 737 mmHg 61%
    21:00 +22°C° 0 mm 3 mps 737 mmHg 63%
    22:00 +23°C° 0 mm 2 mps 737 mmHg 66%
    23:00 +22°C° 0 mm 1 mps 737 mmHg 68%

    Tomorrow, 24 June, Sunday

    Time Temperature Precipitation Wind Pressure Humidity
    00:00 +22°C° 0 mm 1 mps 737 mmHg 70%
    01:00 +21°C° 0 mm 1 mps 737 mmHg 71%
    02:00 +21°C° 0 mm 1 mps 737 mmHg 72%
    03:00 +21°C° 0 mm 1 mps 737 mmHg 72%
    04:00 +19°C° 0 mm 0 mps 737 mmHg 72%
    05:00 +19°C° 0 mm 0 mps 737 mmHg 72%
    06:00 +22°C° 0 mm 0 mps 737 mmHg 63%
    07:00 +24°C° 0 mm 0 mps 738 mmHg 55%
    08:00 +26°C° 0 mm 0 mps 738 mmHg 46%
    09:00 +30°C° 0 mm 1 mps 738 mmHg 41%
    10:00 +32°C° 0 mm 2 mps 738 mmHg 35%
    11:00 +35°C° 0 mm 2 mps 738 mmHg 30%
    12:00 +35°C° 0 mm 3 mps 738 mmHg 29%
    13:00 +36°C° 0 mm 3 mps 738 mmHg 29%
    14:00 +36°C° 0 mm 4 mps 738 mmHg 28%
    15:00 +35°C° 0 mm 4 mps 737 mmHg 32%
    16:00 +33°C° 0 mm 5 mps 737 mmHg 35%
    17:00 +32°C° 0 mm 5 mps 737 mmHg 39%
    18:00 +29°C° 0 mm 4 mps 737 mmHg 46%
    19:00 +27°C° 0 mm 4 mps 738 mmHg 53%
    20:00 +25°C° 0 mm 4 mps 738 mmHg 60%
    21:00 +24°C° 0 mm 3 mps 738 mmHg 63%
    22:00 +22°C° 0 mm 3 mps 738 mmHg 66%
    23:00 +21°C° 0 mm 2 mps 738 mmHg 70%

    Day after tomorrow, 25 June, Monday

    Time Temperature Precipitation Wind Pressure Humidity
    00:00 +20°C° 0 mm 2 mps 738 mmHg 72%
    01:00 +20°C° 0 mm 2 mps 738 mmHg 75%
    02:00 +19°C° 0 mm 2 mps 738 mmHg 77%
    03:00 +19°C° 0 mm 2 mps 738 mmHg 79%
    04:00 +19°C° 0 mm 2 mps 738 mmHg 80%
    05:00 +19°C° 0 mm 1 mps 738 mmHg 81%
    06:00 +20°C° 0 mm 2 mps 738 mmHg 73%
    07:00 +23°C° 0 mm 2 mps 739 mmHg 65%
    08:00 +25°C° 0 mm 2 mps 739 mmHg 56%
    09:00 +27°C° 0 mm 2 mps 739 mmHg 50%
    10:00 +29°C° 0 mm 3 mps 739 mmHg 44%
    11:00 +31°C° 0 mm 3 mps 739 mmHg 38%
    12:00 +31°C° 0 mm 3 mps 739 mmHg 35%
    13:00 +33°C° 0 mm 4 mps 739 mmHg 33%
    14:00 +34°C° 0 mm 4 mps 739 mmHg 30%
    15:00 +32°C° 0 mm 5 mps 739 mmHg 32%
    16:00 +30°C° 0 mm 5 mps 739 mmHg 35%
    17:00 +29°C° 0 mm 5 mps 739 mmHg 37%
    18:00 +27°C° 0 mm 5 mps 739 mmHg 44%
    19:00 +25°C° 0 mm 5 mps 739 mmHg 51%
    20:00 +22°C° 0 mm 4 mps 740 mmHg 57%
    21:00 +21°C° 0 mm 4 mps 740 mmHg 62%
    22:00 +20°C° 0 mm 3 mps 739 mmHg 67%
    23:00 +19°C° 0 mm 3 mps 739 mmHg 71%

    26 June, Tuesday

    Time Temperature Precipitation Wind Pressure Humidity
    00:00 +18°C° 0 mm 2 mps 739 mmHg 75%
    01:00 +17°C° 0 mm 2 mps 739 mmHg 78%
    02:00 +17°C° 0 mm 2 mps 739 mmHg 82%
    03:00 +17°C° 0 mm 2 mps 739 mmHg 83%
    04:00 +16°C° 0 mm 2 mps 739 mmHg 84%
    05:00 +16°C° 0 mm 2 mps 739 mmHg 85%
    06:00 +19°C° 0 mm 2 mps 739 mmHg 73%
    07:00 +21°C° 0 mm 2 mps 739 mmHg 62%
    08:00 +24°C° 0 mm 2 mps 740 mmHg 50%
    09:00 +26°C° 0 mm 3 mps 740 mmHg 43%
    10:00 +28°C° 0 mm 3 mps 739 mmHg 37%
    11:00 +30°C° 0 mm 3 mps 739 mmHg 30%
    12:00 +32°C° 0 mm 4 mps 739 mmHg 29%
    13:00 +32°C° 0 mm 4 mps 739 mmHg 28%
    14:00 +33°C° 0 mm 4 mps 739 mmHg 26%
    15:00 +32°C° 0 mm 5 mps 739 mmHg 30%
    16:00 +30°C° 0 mm 5 mps 739 mmHg 33%
    17:00 +29°C° 0 mm 6 mps 739 mmHg 36%
    18:00 +27°C° 0 mm 5 mps 739 mmHg 43%
    19:00 +25°C° 0 mm 5 mps 739 mmHg 49%
    20:00 +22°C° 0 mm 5 mps 739 mmHg 56%
    21:00 +21°C° 0 mm 4 mps 739 mmHg 61%
    22:00 +19°C° 0 mm 4 mps 739 mmHg 67%
    23:00 +18°C° 0 mm 3 mps 739 mmHg 73%

    27 June, Wednesday

    Time Temperature Precipitation Wind Pressure Humidity
    00:00 +18°C° 0 mm 3 mps 739 mmHg 77%
    01:00 +17°C° 0 mm 3 mps 739 mmHg 81%
    02:00 +16°C° 0 mm 2 mps 739 mmHg 86%
    03:00 +16°C° 0 mm 2 mps 739 mmHg 87%
    04:00 +16°C° 0 mm 2 mps 739 mmHg 88%
    05:00 +16°C° 0 mm 2 mps 739 mmHg 89%
    06:00 +18°C° 0 mm 2 mps 739 mmHg 79%
    07:00 +20°C° 0 mm 2 mps 739 mmHg 69%
    08:00 +22°C° 0 mm 3 mps 740 mmHg 59%
    09:00 +25°C° 0 mm 3 mps 739 mmHg 52%
    10:00 +27°C° 0 mm 3 mps 739 mmHg 45%
    11:00 +28°C° 0 mm 3 mps 739 mmHg 38%
    12:00 +29°C° 0 mm 4 mps 739 mmHg 37%
    13:00 +29°C° 0 mm 4 mps 738 mmHg 35%
    14:00 +30°C° 0 mm 4 mps 738 mmHg 33%
    15:00 +29°C° 0 mm 5 mps 738 mmHg 37%
    16:00 +28°C° 0 mm 5 mps 738 mmHg 41%
    17:00 +27°C° 0 mm 5 mps 738 mmHg 45%
    18:00 +25°C° 0 mm 5 mps 738 mmHg 52%
    19:00 +22°C° 0 mm 5 mps 738 mmHg 59%
    20:00 +21°C° 0 mm 5 mps 738 mmHg 66%
    21:00 +20°C° 0 mm 4 mps 738 mmHg 70%
    22:00 +19°C° 0 mm 4 mps 738 mmHg 74%
    23:00 +18°C° 0 mm 3 mps 738 mmHg 77%

    28 June, Thursday

    Time Temperature Precipitation Wind Pressure Humidity
    00:00 +18°C° 0 mm 3 mps 737 mmHg 80%
    01:00 +18°C° 0 mm 3 mps 737 mmHg 82%
    02:00 +17°C° 0 mm 2 mps 737 mmHg 85%
    03:00 +17°C° 0 mm 2 mps 737 mmHg 86%
    04:00 +17°C° 0 mm 2 mps 737 mmHg 87%
    05:00 +17°C° 0 mm 2 mps 737 mmHg 88%
    06:00 +18°C° 0 mm 2 mps 737 mmHg 79%
    07:00 +20°C° 0 mm 2 mps 737 mmHg 70%
    08:00 +21°C° 0 mm 2 mps 737 mmHg 61%
    09:00 +24°C° 0 mm 3 mps 736 mmHg 54%
    10:00 +25°C° 0 mm 3 mps 736 mmHg 47%
    11:00 +27°C° 0 mm 3 mps 736 mmHg 39%
    12:00 +28°C° 0 mm 3 mps 736 mmHg 38%
    13:00 +28°C° 0 mm 4 mps 735 mmHg 36%
    14:00 +29°C° 0 mm 4 mps 735 mmHg 35%
    15:00 +28°C° 0 mm 4 mps 735 mmHg 38%
    16:00 +27°C° 0 mm 5 mps 735 mmHg 42%
    17:00 +26°C° 0 mm 5 mps 735 mmHg 45%
    18:00 +23°C° 0 mm 5 mps 735 mmHg 52%
    19:00 +22°C° 0 mm 4 mps 735 mmHg 58%
    20:00 +20°C° 0 mm 4 mps 735 mmHg 65%
    21:00 +19°C° 0 mm 4 mps 735 mmHg 70%
    22:00 +18°C° 0 mm 3 mps 735 mmHg 75%
    23:00 +17°C° 0 mm 3 mps 735 mmHg 81%
    Show more